[[{"header":{"parameterUnit":"m.s-1","parameterCategory":1,"la1":30.2991,"la2":30.254,"lo1":-89.0895,"lo2":-89.0444,"dy":0.0017,"dx":0.0017,"nx":28,"ny":28,"refTime":"2023-09-23T21:00:00:Z","depth":0,"parameterNumber":2,"parameterNumberName":"U-component_of_WINDS"},"data":[0,0,0,0,0,0,0,0,0,0,0,0,0,0,0,0,0,0,0,0,0,0,0,0,0,0,0,0,0,0,0,0,0,0,0,0,0,0,0,0,0,0,0,0,0,0,0,0,0,0,0,0,0,0,0,0,0,0,1.8548,1.8548,0,1.8571,1.8571,1.8571,1.8535,1.8534,1.8533,1.8532,1.8554,1.8556,1.8557,0,0,0,0,0,0,0,0,0,0,0,0,0,1.8471,1.8473,1.8548,1.8548,1.8549,1.8571,1.8571,1.8571,1.8536,1.8534,1.8533,1.8531,1.8553,1.8555,1.8558,0,0,0,0,0,0,0,0,0,0,0,0,0,1.85,1.8473,1.8548,1.8533,1.8532,1.857,1.8571,1.8571,1.8536,1.8534,1.8532,1.8531,1.8553,1.8555,1.8558,1.8611,0,0,1.8566,1.8567,0,0,0,0,0,0,0,0,1.8499,1.8503,1.8535,1.8535,1.8533,1.8548,1.8552,1.8584,1.8536,1.8535,1.8532,1.853,1.8554,1.8556,1.8564,1.8612,1.8613,1.8566,1.8568,1.8569,1.8569,0,0,0,0,0,0,0,1.8497,1.8502,1.8557,1.8536,1.8535,1.8525,1.8527,1.8558,1.8554,1.8535,1.8532,1.8535,1.8553,1.8562,1.8564,1.8613,1.8566,1.8568,1.857,1.8571,1.8702,1.8703,0,0,0,0,0,0,1.8497,1.8501,1.8556,1.8558,1.8511,1.8528,1.853,1.8545,1.8554,1.8553,1.8537,1.8534,1.8558,1.8561,1.8565,1.8625,1.8569,1.8571,1.8573,1.87,1.8702,1.8704,0,0,0,0,0,0,1.8495,1.8502,1.8555,1.8528,1.8534,1.8531,1.8548,1.8547,1.8556,1.8555,1.8554,1.8547,1.8557,1.8561,1.8599,1.8625,1.8572,1.8575,1.8697,1.87,1.8703,1.8746,0,0,0,0,0,0,1.8493,1.8502,1.8523,1.8529,1.8536,1.859,1.855,1.8549,1.8561,1.8556,1.8565,1.8564,1.8556,1.8595,1.8602,1.8628,1.8577,1.8695,1.8699,1.8702,1.8742,1.875,1.8757,0,0,0,0,0,1.8491,1.8535,1.8524,1.8531,1.8562,1.8591,1.8595,1.8585,1.8563,1.8583,1.8582,1.8564,1.8622,1.8599,1.8606,1.8634,1.8693,1.8698,1.8702,1.8739,1.8749,1.8757,0,0,0,0,0,0,1.8531,1.8535,1.8523,1.8571,1.8581,1.8585,1.861,1.8596,1.8612,1.8608,1.8594,1.8596,1.8636,1.8639,1.8614,1.8683,1.8654,1.866,1.868,1.8689,1.8696,1.8693,1.8579,0,0,0,0,0,1.8546,1.857,1.8572,1.8613,1.8619,1.8614,1.8626,1.8617,1.8627,1.8631,1.8633,1.8643,1.8663,1.8676,1.8695,1.8743,1.8743,1.8765,1.8773,1.8779,1.8783,1.8805,1.8814,1.8718,1.8718,1.8718,0,0,1.8576,1.8581,1.8597,1.8622,1.8628,1.8652,1.8618,1.8645,1.8662,1.8635,1.867,1.8672,1.8682,1.8724,1.8743,1.8728,1.881,1.8784,1.8789,1.879,1.8811,1.882,1.8828,1.8721,1.8721,1.872,0,0,1.8642,1.865,1.8684,1.8691,1.8701,1.8697,1.8705,1.8712,1.8711,1.8746,1.8726,1.8746,1.8781,1.8788,1.8796,1.8863,1.8846,1.887,1.8907,1.8929,1.8936,1.8943,1.8964,1.8972,1.8875,1.8875,1.8875,0,1.8678,1.8714,1.8703,1.8731,1.8741,1.8718,1.875,1.8758,1.8774,1.8781,1.8764,1.8806,1.8812,1.8853,1.887,1.8878,1.8885,1.8868,1.8936,1.8943,1.8949,1.8968,1.8977,1.8877,1.8877,1.8877,1.8877,0,1.8756,1.878,1.8806,1.8821,1.8835,1.8865,1.8857,1.8872,1.8862,1.8859,1.8893,1.8899,1.8917,1.8927,1.8918,1.8967,1.8956,1.8939,1.8908,1.8961,1.8979,1.8986,1.8881,1.888,1.8879,1.8879,0,0,1.8848,1.8855,1.8865,1.887,1.8879,1.8897,1.8926,1.8943,1.8954,1.8966,1.8988,1.9018,1.9,1.901,1.9001,1.9021,1.907,1.9,1.9,1.901,1.912,1.9132,1.9141,1.9059,1.9061,1.9062,1.9119,0,1.8911,1.896,1.895,1.8997,1.9018,1.8996,1.902,1.9028,1.9026,1.9043,1.9041,1.9061,1.9038,1.9043,1.9062,1.906,1.9091,1.9056,1.9077,1.9078,1.9073,1.9151,1.9164,1.9217,1.9126,1.9127,1.9128,0,1.8992,1.9005,1.9054,1.9057,1.9065,1.9087,1.9101,1.9118,1.9125,1.9122,1.9132,1.9119,1.9146,1.9116,1.9151,1.9128,1.9136,1.9136,1.9138,1.9137,1.9104,1.915,1.9234,1.9241,1.914,1.9139,1.9138,0,1.905,1.908,1.9113,1.9118,1.9124,1.9139,1.9142,1.9147,1.9157,1.917,1.9175,1.9191,1.9199,1.921,1.9201,1.9181,1.9236,1.9207,1.9233,1.9233,1.9244,1.9242,1.9328,1.9254,1.9254,1.9254,1.9254,0,1.912,1.915,1.9138,1.9158,1.919,1.9178,1.921,1.9211,1.9215,1.9234,1.9217,1.9234,1.9222,1.9238,1.9232,1.926,1.9264,1.9261,1.9258,1.9261,1.9261,1.9264,1.9259,1.9256,1.9255,1.9255,1.9255,0,1.9189,1.9183,1.9216,1.9218,1.9219,1.9242,1.9243,1.9261,1.9258,1.9281,1.9286,1.928,1.9298,1.9291,1.931,1.9305,1.9341,1.9335,1.9338,1.9335,1.936,1.9357,1.9448,1.9458,1.9381,1.9381,1.9382,0,1.9233,1.9255,1.9259,1.9269,1.9273,1.9291,1.9301,1.929,1.9301,1.9309,1.9325,1.9342,1.9354,1.9383,1.9381,1.9395,1.9387,1.9418,1.9389,1.939,1.9384,1.9381,1.9382,1.9423,1.9424,1.9425,1.9425,0,1.931,1.9305,1.932,1.9333,1.9345,1.9355,1.9363,1.9373,1.9362,1.9375,1.9393,1.9402,1.9421,1.9436,1.9448,1.9451,1.9435,1.9435,1.9441,1.9442,1.9442,1.9439,1.935,1.9432,1.9431,1.9431,1.9431,1.943,1.9366,1.9383,1.9388,1.9404,1.9409,1.9416,1.9432,1.943,1.9445,1.9458,1.9451,1.9471,1.9476,1.9491,1.9495,1.9509,1.9497,1.9507,1.9509,1.951,1.9512,1.9442,1.9512,1.9512,1.9512,1.9511,1.9511,0,1.9439,1.944,1.9456,1.9467,1.9479,1.9464,1.9472,1.9483,1.9501,1.9507,1.9519,1.9538,1.9552,1.9551,1.9564,1.9576,1.9569,1.9579,1.9577,1.9577,1.9524,1.9516,1.9584,1.9584,1.9584,1.9584,1.9584,1.9584,1.9478,1.9506,1.9502,1.9531,1.9532,1.9551,1.9556,1.9563,1.9567,1.9589,1.96,1.9599,1.9601,1.9614,1.9626,1.9625,1.963,1.9642,1.9638,1.9588,1.9581,1.9574,1.9566,1.9644,1.9644,1.9689,1.969,1.969]},{"header":{"parameterUnit":"m.s-1","parameterCategory":1,"la1":30.2991,"la2":30.254,"lo1":-89.0895,"lo2":-89.0444,"dy":0.0017,"dx":0.0017,"nx":28,"ny":28,"refTime":"2023-09-23T21:00:00:Z","depth":0,"parameterNumber":3,"parameterNumberName":"V-component_of_WINDS"},"data":[0,0,0,0,0,0,0,0,0,0,0,0,0,0,0,0,0,0,0,0,0,0,0,0,0,0,0,0,0,0,0,0,0,0,0,0,0,0,0,0,0,0,0,0,0,0,0,0,0,0,0,0,0,0,0,0,0,0,3.0129,3.013,0,3.0176,3.0177,3.0177,3.0148,3.0147,3.0146,3.0144,3.0189,3.0191,3.0193,0,0,0,0,0,0,0,0,0,0,0,0,0,3.0008,3.0011,3.0129,3.013,3.013,3.0176,3.0177,3.0178,3.0149,3.0147,3.0145,3.0144,3.0188,3.0191,3.0194,0,0,0,0,0,0,0,0,0,0,0,0,0,3.0059,3.0011,3.0129,3.0121,3.0121,3.0176,3.0177,3.0178,3.0149,3.0147,3.0145,3.0143,3.0187,3.019,3.0194,3.0258,0,0,3.0205,3.0207,0,0,0,0,0,0,0,0,3.0056,3.0063,3.0122,3.0122,3.0122,3.0154,3.0151,3.0204,3.0149,3.0138,3.0144,3.0142,3.0179,3.0183,3.0196,3.026,3.0262,3.0206,3.0208,3.0209,3.021,0,0,0,0,0,0,0,3.0052,3.0061,3.0148,3.0123,3.0123,3.0114,3.0119,3.0161,3.0169,3.0139,3.0137,3.0143,3.0178,3.0193,3.0197,3.0262,3.0205,3.0209,3.0211,3.0212,3.0378,3.038,0,0,0,0,0,0,3.005,3.0058,3.0146,3.0149,3.0083,3.0118,3.0123,3.0146,3.0169,3.017,3.0145,3.0142,3.0187,3.0193,3.0198,3.0273,3.0209,3.0213,3.0215,3.0376,3.0379,3.0381,0,0,0,0,0,0,3.0048,3.0058,3.0144,3.0103,3.0113,3.0122,3.0148,3.0148,3.0162,3.0173,3.0174,3.0159,3.0186,3.0193,3.0243,3.0274,3.0214,3.0218,3.0373,3.0377,3.038,3.0423,0,0,0,0,0,0,3.0044,3.0058,3.0083,3.0104,3.0116,3.019,3.015,3.015,3.0169,3.0166,3.0186,3.0187,3.0185,3.0238,3.0247,3.0278,3.0221,3.0371,3.0375,3.0379,3.0419,3.0427,3.0435,0,0,0,0,0,3.004,3.0093,3.0085,3.0095,3.0148,3.0192,3.0198,3.0195,3.0172,3.0197,3.0203,3.0187,3.0269,3.0243,3.0253,3.0286,3.0369,3.0374,3.0378,3.0415,3.0426,3.0435,0,0,0,0,0,0,3.0074,3.0096,3.0087,3.0148,3.0169,3.0187,3.0218,3.0207,3.0233,3.0228,3.0222,3.0227,3.0278,3.0287,3.0257,3.0347,3.0315,3.0322,3.034,3.035,3.0358,3.0354,3.0224,0,0,0,0,0,3.009,3.0125,3.0141,3.0193,3.0204,3.0209,3.0228,3.0224,3.0244,3.0252,3.0263,3.0282,3.0311,3.0331,3.036,3.042,3.0423,3.0448,3.0456,3.0462,3.0468,3.0498,3.0509,3.0397,3.0397,3.0397,0,0,3.012,3.0136,3.0159,3.0201,3.0216,3.025,3.0217,3.0255,3.028,3.0258,3.0305,3.0313,3.0334,3.0389,3.0414,3.0398,3.0499,3.0468,3.0473,3.0476,3.0505,3.0515,3.0525,3.0401,3.04,3.0399,0,0,3.0194,3.0211,3.0255,3.0271,3.0295,3.0298,3.0309,3.0329,3.0334,3.0382,3.0365,3.0394,3.0446,3.0461,3.0475,3.0553,3.0538,3.0563,3.0603,3.0633,3.0642,3.065,3.0676,3.0685,3.0569,3.0569,3.0569,0,3.0229,3.0282,3.0279,3.0319,3.0337,3.0319,3.0363,3.0378,3.041,3.0422,3.0404,3.0468,3.0481,3.0538,3.0557,3.057,3.058,3.056,3.0641,3.0649,3.0656,3.0681,3.0691,3.0571,3.0571,3.0571,3.057,0,3.0323,3.0359,3.0392,3.0424,3.0446,3.0487,3.0489,3.0511,3.0505,3.0509,3.0557,3.0572,3.0602,3.0615,3.061,3.0671,3.0661,3.0643,3.0609,3.067,3.0692,3.0702,3.0575,3.0574,3.0573,3.0573,0,0,3.0419,3.0448,3.046,3.0474,3.0498,3.0526,3.0565,3.0596,3.0614,3.0636,3.0668,3.0712,3.0695,3.0711,3.0707,3.0733,3.0792,3.0711,3.0712,3.0724,3.0858,3.0871,3.0882,3.0782,3.0784,3.0786,3.0856,0,3.0493,3.0564,3.0562,3.0627,3.066,3.0643,3.0677,3.0695,3.07,3.0727,3.0732,3.0762,3.0739,3.0748,3.0774,3.0779,3.0818,3.0774,3.081,3.0811,3.0804,3.0894,3.0908,3.0974,3.0865,3.0867,3.0868,0,3.0588,3.0614,3.0683,3.0701,3.0715,3.0746,3.0772,3.0799,3.0818,3.082,3.0838,3.0829,3.0867,3.0834,3.0885,3.0855,3.087,3.0875,3.0877,3.0879,3.0842,3.0897,3.0995,3.1004,3.0882,3.0881,3.088,0,3.0649,3.0701,3.0749,3.0761,3.0784,3.0805,3.0816,3.0833,3.0851,3.0874,3.0885,3.0912,3.0926,3.0946,3.0944,3.0921,3.0996,3.0963,3.0996,3.0996,3.1012,3.101,3.1111,3.1024,3.1024,3.1023,3.1023,0,3.0731,3.0773,3.0776,3.0805,3.0851,3.0848,3.0893,3.0901,3.0916,3.0944,3.0932,3.0958,3.0955,3.0981,3.098,3.1021,3.1028,3.1029,3.1028,3.1029,3.1029,3.1037,3.1032,3.1026,3.1025,3.1025,3.1024,0,3.0807,3.0811,3.0861,3.0878,3.0884,3.0917,3.0931,3.0957,3.0961,3.0997,3.1005,3.1011,3.1041,3.1041,3.1076,3.1074,3.1125,3.1119,3.1119,3.1117,3.1149,3.1146,3.1258,3.1272,3.1177,3.1178,3.1178,0,3.0858,3.089,3.0911,3.093,3.0942,3.0972,3.099,3.0988,3.1007,3.103,3.1053,3.1083,3.1106,3.1155,3.1161,3.1187,3.118,3.1218,3.1184,3.1184,3.1179,3.1176,3.1178,3.1224,3.1225,3.1226,3.1227,0,3.0947,3.0947,3.0975,3.1003,3.1025,3.1047,3.1067,3.1083,3.1082,3.1104,3.1136,3.1154,3.1189,3.1217,3.1242,3.1251,3.1238,3.1238,3.1246,3.1247,3.1245,3.1245,3.1135,3.1235,3.1234,3.1233,3.1233,3.1233,3.1011,3.1038,3.1057,3.1087,3.1102,3.1121,3.1146,3.1153,3.118,3.1209,3.1205,3.124,3.1256,3.1288,3.1299,3.1324,3.1311,3.1324,3.1327,3.133,3.1333,3.1242,3.1329,3.1329,3.1329,3.1328,3.1328,0,3.1098,3.1109,3.1138,3.1166,3.119,3.1177,3.1198,3.1218,3.1249,3.1266,3.1289,3.1324,3.1351,3.136,3.1385,3.1404,3.1399,3.1411,3.1409,3.141,3.1344,3.1333,3.1415,3.1415,3.1415,3.1415,3.1415,3.1415,3.1146,3.1191,3.1193,3.1244,3.1254,3.1289,3.1302,3.1318,3.1331,3.1371,3.1394,3.14,3.1412,3.1439,3.1463,3.1464,3.1474,3.1488,3.1487,3.1424,3.1415,3.1407,3.1397,3.149,3.149,3.1551,3.1551,3.1552]}]]